Location: Unspecified
(54.1780°N, 0.0000°E)
Time: 16:30:11
(UTC+00:00)

Tiros 1 - Pass Details

Date: 21 June 2019
Orbit: 630 x 664 km, 48.4° (Epoch: 16 July)

Event Time Altitude Azimuth Distance (km) Brightness Sun altitude
Rises 00:39:26 0° 227° (SW) 2,939 - -12.0°
Reaches altitude 10° 00:42:01 10° 216° (SW) 2,026 - -11.9°
Exits shadow 00:43:15 16° 206° (SSW) 1,648 8.6 -11.9°
Maximum altitude 00:45:58 28° 158° (SSE) 1,202 8.1 -11.8°
Drops below altitude 10° 00:49:54 10° 100° (E) 2,017 9.7 -11.7°
Sets 00:52:28 0° 89° (E) 2,923 10.7 -11.6°
